Location: Cactus School
(34.5700°N, 118.0931°W)
Time: 23:53:09
(UTC-07:00)

Transit 4A - Pass Details

Date: 16 April 2024
Orbit: 871 x 971 km, 66.8° (Epoch: 17 May)

Event Time Altitude Azimuth Distance (km) Brightness Sun altitude
Rises 14:16:36 0° 214° (SW) 3,560 11.4 59.2°
Reaches altitude 10° 14:19:11 10° 217° (SW) 2,605 10.9 58.8°
Maximum altitude 14:25:09 63° 298° (WNW) 1,001 9.3 57.9°
Drops below altitude 10° 14:31:01 10° 20° (NNE) 2,554 10.0 57.0°
Sets 14:33:32 0° 23° (NNE) 3,486 10.6 56.6°
